Location: B?ghd?d Khw?ra
(31.5217°N, 68.6407°E)
Time: 13:57:54
(UTC+00:00)

Daily predictions for brighter satellites

Satellite Brightness Start Highest point End
(mag) Time Altitude Azimuth Time Altitude Azimuth Time Altitude Azimuth
FALCON 9 R/B 3.5 13:55:18 10° W 14:00:26 74° N 14:19:44 10° E
Cosmos 1464 Rocket 4.4 14:11:35 10° SSW 14:17:52 71° W 14:24:05 10° N
Cosmos 2322 4.4 14:15:10 10° N 14:20:19 35° ENE 14:25:26 10° SE
CZ-2C R/B 2.6 14:15:57 10° NNE 14:21:12 86° ESE 14:26:33 10° SSW
Cosmos 405 3.1 14:18:10 10° S 14:21:30 51° E 14:24:53 10° NNE
Cosmos 2251 Rocket 3.8 14:16:28 10° S 14:21:36 49° ESE 14:26:44 10° NNE
Cosmos 1441 Rocket 4.0 14:20:14 10° NNW 14:24:09 58° W 14:28:02 10° S
FALCON 9 DEB 2.9 14:22:25 10° SSW 14:25:24 52° SE 14:28:23 10° NE
Cosmos 1302 Rocket 4.0 14:24:37 10° NNW 14:29:55 84° ENE 14:35:10 10° SSE
FALCON 9 DEB 2.7 14:27:18 10° SW 14:30:19 86° SE 14:33:20 10° NE
Cosmos 1606 Rocket 4.2 14:28:36 10° SSW 14:32:54 61° W 14:37:13 10° N
Cosmos 2228 4.2 14:28:43 10° SSW 14:32:55 49° W 14:37:06 10° N
COSMOS 2455 4.5 14:31:42 10° ESE 14:33:23 11° ESE 14:35:05 10° E
Cosmos 2360 Rocket 2.5 14:31:10 10° NNW 14:36:47 70° WSW 14:42:21 10° S
Cosmos 389 Rocket 4.1 14:34:57 10° SE 14:37:17 17° E 14:39:37 10° NE
Meteor 2-10 Rocket 3.8 14:34:20 10° S 14:39:30 78° W 14:44:56 10° N
SAR-Lupe-4 3.6 14:36:09 10° N 14:39:44 85° WNW 14:43:18 10° SSW
Cosmos 1726 Rocket 4.1 14:37:30 10° SSW 14:41:50 63° W 14:46:09 10° N
FALCON 9 DEB 3.5 14:39:29 10° SW 14:42:27 57° NW 14:45:27 10° NE
Cosmos 909 Rocket 4.1 14:36:03 10° SSW 14:42:41 86° WNW 14:48:59 10° NNE
ERS-2 2.1 14:40:10 10° NNE 14:43:48 87° WNW 14:47:25 10° SSW
Cosmos 1634 Rocket 4.1 14:38:13 10° SSE 14:44:19 55° E 14:50:22 10° NNE
HJ-1C 3.8 14:41:06 10° S 14:44:20 62° W 14:47:36 10° NNW
Cosmos 1992 Rocket 4.4 14:42:22 10° N 14:47:21 45° ENE 14:52:04 11° SE
Cosmos 1689 Rocket 3.9 14:45:03 10° N 14:47:37 33° WNW 14:50:11 10° SW
Meteor 2-1 Rocket 4.4 14:43:31 10° S 14:49:10 56° E 14:54:55 10° NNE
Cosmos 2219 Rocket 2.4 14:45:44 10° N 14:51:17 53° ENE 14:56:22 12° SE
COSMOS 2428 3.1 14:49:05 10° N 14:54:36 47° ENE 14:59:04 15° SE
Cosmos 2333 4.2 14:49:32 10° NNW 14:55:18 88° ENE 15:00:59 10° SSE
Cosmos 1455 2.4 14:54:19 10° SSW 14:58:02 70° W 15:01:46 10° N
BREEZE-M DEB (TANK) 2.8 14:55:59 10° NNW 14:58:22 38° NE 15:00:38 20° ESE
SL-4 R/B 2.5 14:55:55 10° SW 15:00:00 67° NW 15:04:29 10° NE
Cosmos 407 Rocket 3.8 14:56:35 10° S 15:01:20 41° ESE 15:06:09 10° NNE
Palapa 6 Rocket 4.2 14:58:20 10° SW 15:01:32 22° S 15:02:53 18° SSE
CZ-4 R/B 3.8 14:58:13 10° SSW 15:01:39 24° W 15:05:06 10° NW
Exosat Rocket 4.2 14:58:17 10° N 15:03:28 37° ENE 15:06:11 21° ESE
FALCON 9 DEB 4.3 15:01:08 10° WSW 15:04:01 39° NW 15:06:55 10° NNE
Timation 2 Rocket 4.3 15:00:17 10° S 15:06:32 44° ESE 15:12:36 10° NE
USA 186 1.8 15:11:43 17° S 15:14:11 85° W 15:17:26 10° NNW
Cosmos 1140 Rocket 3.6 15:10:15 10° S 15:15:10 49° ESE 15:20:06 10° NNE
OBJECT-B 0.8 15:14:37 37° SE 15:15:35 56° ENE 15:18:44 10° N
Cosmos 44 Rocket 4.5 15:18:30 24° E 15:18:30 24° E 15:21:31 10° NE
Cosmos 2237 Rocket 3.2 15:19:08 10° N 15:23:55 28° ENE 15:25:14 25° E
Cosmos 1812 Rocket 3.6 15:23:29 23° SSE 15:26:04 57° E 15:30:25 10° NNE
Cosmos 1408 4.1 15:24:38 10° NNW 15:27:54 35° W 15:31:10 10° SSW
Cosmos 1356 3.8 15:25:10 10° N 15:28:10 44° ENE 15:28:10 44° ENE
Helios 1A Rocket 4.4 15:25:11 10° SSW 15:28:56 36° W 15:32:44 10° NNW
MetOp-A 4.4 15:25:30 10° S 15:30:48 66° WSW 15:36:08 10° NNW
Cosmos 2227 Rocket 2.1 15:25:31 10° S 15:31:06 66° ESE 15:36:43 10° NNE
BREEZE M DEB (TANK) 3.0 15:32:41 10° SW 15:35:19 71° NW 15:41:21 10° NE
Cosmos 405 Rocket 2.6 15:31:48 10° N 15:35:43 66° E 15:36:06 61° ESE
Cosmos 2297 Rocket 2.2 15:32:10 10° SSW 15:37:47 80° WNW 15:43:27 10° NNE
ATLAS 5 CENTAUR R/B 1.8 15:36:14 10° NNW 15:37:56 47° NNE 15:37:56 47° NNE
Hubble Space Telescope 0.9 15:34:24 10° WSW 15:38:25 53° S 15:38:31 53° S
IRIDIUM 106 4.2 15:38:49 28° S 15:41:39 74° E 15:46:51 10° N
Cosmos 2219 3.3 15:41:07 10° SSW 15:46:42 74° WNW 15:52:20 10° NNE
Cosmos 1825 3.6 15:45:35 10° NNW 15:49:03 35° W 15:51:05 20° SW
Resurs 01 Rocket 2.1 15:53:30 45° NE 15:53:30 45° NE 15:57:13 10° N
Resurs 1-3 3.5 15:54:28 68° S 15:55:00 85° W 15:59:24 10° NNW
Cosmos 2058 4.4 15:52:05 10° NNW 15:55:53 35° W 15:58:09 20° SW
Cosmos 2333 Rocket 3.8 15:52:20 10° NW 15:57:17 30° WSW 16:01:52 11° SSW
Cosmos 1190 Rocket 4.2 15:53:33 10° SSW 15:58:46 69° WNW 16:03:58 10° N
Ariane Rocket 3.2 15:57:59 40° S 15:59:44 68° WSW 16:04:46 10° NNW
ATLAS 3B R/B 2.9 15:54:20 10° NNW 16:01:30 74° WSW 16:04:34 38° SSE
Cosmos 1633 4.3 15:59:24 10° N 16:01:04 25° N 16:01:04 25° N
SPOT 1/Viking Rocket 4.5 16:12:25 35° NE 16:12:25 35° NE 16:16:06 10° N
Cosmos 676 Rocket 3.9 16:17:00 80° W 16:17:09 81° WNW 16:22:20 10° NNE
Meteor 2-21 Rocket 4.3 16:11:59 10° N 16:17:56 69° ENE 16:17:56 69° ENE
COSMOS 2455 2.8 16:12:31 10° SSW 16:18:31 79° WNW 16:24:33 10° NNE
SPOT 3 Rocket 3.5 16:19:21 80° N 16:19:21 80° N 16:24:16 10° NNW
Cosmos 1980 3.6 16:14:34 10° NNW 16:20:15 83° WSW 16:20:27 81° SW
SL-16 R/B 3.5 16:15:59 10° N 16:19:39 26° NE 16:19:39 26° NE
Cosmos-2242 3.9 16:22:16 49° NW 16:22:16 49° NW 16:25:49 10° N
Meteor 2-16 Rocket 4.5 16:22:21 10° N 16:27:56 66° NE 16:27:56 66° NE
Cosmos 2151 4.3 16:28:08 10° NNW 16:30:59 38° NW 16:30:59 38° NW
Cosmos 2266 Rocket 3.9 16:27:05 10° N 16:33:24 88° WNW 16:33:24 88° WNW
Meteor 2-3 Rocket 4.4 16:48:20 10° NNW 16:53:09 51° WNW 16:53:09 51° WNW
BREEZE-M (TANK) 4.3 16:53:44 10° NW 17:01:39 48° NW 17:01:39 48° NW
Cosmos 2237 Rocket 3.7 17:03:00 10° NW 17:07:05 30° W 17:07:05 30° W
USA 215 4.3 17:46:56 40° NNW 17:46:56 40° NNW 17:51:05 10° NNW
ATLAS 3B CENTAUR R/B 4.5 17:48:03 10° W 18:07:29 65° SW 18:07:29 65° SW
SL-16 R/B 3.9 21:06:18 33° N 21:06:18 33° N 21:09:41 10° N
CZ-4C R/B 4.1 20:57:39 10° NNW 21:04:46 40° NE 21:12:38 10° ESE
CZ-2D R/B 4.2 21:08:47 10° N 21:10:42 22° N 21:10:42 22° N
Cosmos 2082 Rocket 4.2 21:12:18 10° N 21:14:25 23° N 21:14:25 23° N
ADEOS II 4.0 21:17:10 10° NNE 21:19:30 26° NNE 21:19:30 26° NNE
Cosmos 1943 Rocket 3.6 21:28:55 34° NE 21:28:55 34° NE 21:32:11 10° NNE
IDEFIX/ARIANE 42P 4.0 21:37:14 10° NNE 21:40:44 35° ENE 21:40:44 35° ENE
USA 234 3.5 21:39:57 10° NE 21:45:38 61° N 21:45:38 61° N
Cosmos 2369 Rocket 2.8 21:59:28 51° ENE 21:59:28 51° ENE 22:04:09 10° NNE
MSX 4.4 21:55:51 10° NNE 22:01:25 49° E 22:01:33 49° ESE
Meteor 1-23 Rocket 4.3 22:15:26 76° NNE 22:15:26 76° NNE 22:20:43 10° N
IRS-1C 4.2 22:14:06 10° NNE 22:18:59 74° NE 22:18:59 74° NE
Cosmos 1656 Rocket 3.9 22:26:57 56° SE 22:27:30 59° ESE 22:32:50 10° NNE
Cosmos 1674 Rocket 3.7 22:39:08 71° NE 22:39:08 71° NE 22:43:10 10° N
Cosmos 1727 Rocket 4.0 22:39:53 40° S 22:42:17 82° E 22:48:34 10° N
BREEZE-M DEB (TANK) 3.0 22:42:18 58° S 22:43:04 68° SE 22:54:06 10° NE
SL-08 R/B 3.7 22:40:15 25° SSE 22:43:05 65° ENE 22:47:53 10° N
CZ-2C R/B 4.2 22:40:03 10° NNE 22:43:35 34° E 22:44:33 30° SE
ARIANE 5 R/B 2.4 22:39:44 10° N 22:44:55 70° WNW 22:45:13 68° W
NOSS 3-4 (A) 3.8 22:39:39 10° NNW 22:47:02 79° WSW 22:55:08 10° SSE
NOSS 3-4 (C) 3.8 22:39:45 10° NNW 22:47:09 80° WSW 22:55:15 10° SSE
Okean 2 3.9 22:47:07 50° SE 22:47:45 57° E 22:51:50 10° NNE
PAYLOAD A 4.4 22:47:46 10° NNE 22:52:40 57° E 22:55:01 28° SSE
CZ-4C R/B 3.3 22:46:04 10° NW 22:53:31 45° WSW 23:01:34 10° S
Cosmos 1766 3.5 22:49:52 10° N 22:53:13 61° NNW 22:53:13 61° NNW
Milstar 3 3.1 22:51:11 41° WSW 22:54:03 71° S 23:04:57 10° ESE
ADEOS Rocket 3.3 22:54:48 44° SW 22:55:49 48° W 23:02:27 10° NNW
ATLAS CENTAUR R/B 4.0 22:57:31 10° SE 22:58:38 11° ESE 22:59:45 10° E
Cosmos 2298 Rocket 4.3 22:58:29 45° W 22:58:50 45° WNW 23:03:55 10° N
Spot 4 Rocket 3.9 22:56:01 10° N 23:01:11 81° WNW 23:03:02 41° SSW
ATLAS 2AS CENTAUR R/B 2.8 22:54:07 10° NNW 23:01:16 77° ENE 23:07:50 10° SSE
ADEOS II 4.1 22:59:02 10° NW 23:00:26 13° NW 23:00:26 13° NW
Cosmos 1461 3.1 23:06:54 48° SSW 23:08:14 87° WNW 23:12:58 10° NNE
CZ-2D R/B 3.8 23:04:46 10° N 23:08:49 47° WNW 23:08:57 46° W
Cosmos 1867 3.8 23:07:35 28° S 23:10:29 67° ESE 23:15:54 10° NNE
Cosmos 1943 Rocket 3.9 23:10:27 16° WNW 23:10:43 16° WNW 23:14:12 10° NNW
Delta 2 Rocket 4.2 23:10:40 36° SW 23:12:09 42° SSW 23:17:46 10° ESE
PSLV R/B 4.4 23:08:32 10° NNE 23:12:36 47° E 23:16:16 12° S
Cosmos 1125 Rocket 3.8 23:12:32 39° WSW 23:13:48 46° WNW 23:18:52 10° N
ASTRO E2 2.5 23:16:42 53° W 23:17:32 77° S 23:21:28 10° ESE
Cosmos 1726 3.2 23:15:21 10° N 23:18:56 45° E 23:22:29 10° SSE
GP-B 3.2 23:15:53 10° N 23:20:19 77° E 23:24:44 10° S
Cosmos 1470 3.2 23:16:35 10° N 23:20:24 61° E 23:24:14 10° SSE
IDEFIX/ARIANE 42P 4.1 23:17:54 10° NNW 23:21:23 18° WNW 23:21:34 18° WNW
Cosmos 1707 2.6 23:19:49 27° S 23:21:52 89° ENE 23:25:44 10° N
ALOS 2.8 23:19:52 10° NNE 23:24:28 58° E 23:29:03 10° S
SL-4 R/B 2.7 23:22:39 27° WNW 23:24:42 41° SW 23:29:05 10° SSE
IRAS Rocket 4.4 23:19:58 10° SSE 23:25:26 74° ENE 23:30:58 10° N
GPS 2-04 Rocket1 2.8 23:26:36 39° SSW 23:27:21 47° SSE 23:30:38 10° E
Cosmos 2151 Rocket 4.3 23:24:35 10° NNW 23:28:36 32° W 23:29:18 30° WSW
Cosmos 1975 Rocket 3.4 23:25:54 10° S 23:30:19 66° E 23:34:42 10° NNE
Chunghua 1 4.5 23:31:19 37° SW 23:32:37 70° SSE 23:36:18 10° ENE
Meteor 1-21 4.4 23:29:51 17° SSW 23:34:12 57° W 23:39:55 10° N
CZ-2C R/B 2.8 23:36:31 10° N 23:41:09 45° WNW 23:44:49 16° SW
Delta 2 Rocket 3.7 23:39:34 24° SSW 23:41:17 43° SSE 23:44:56 10° E
Cosmos 2369 Rocket 3.8 23:41:18 14° W 23:43:02 16° WNW 23:46:30 10° NNW
Cosmos 1400 Rocket 2.8 23:39:38 10° NNW 23:43:43 61° W 23:47:46 10° S
Cosmos 44 3.6 23:38:31 10° NNW 23:43:55 78° ENE 23:49:02 10° SSE
Cosmos 1802 Rocket 4.0 23:40:08 10° N 23:46:22 86° E 23:52:30 10° S
DELTA 2 R/B (1) 3.8 23:45:06 10° WNW 23:50:39 71° NNE 23:56:13 10° ESE
Cosmos 1833 4.3 23:44:56 10° NNW 23:50:42 85° ENE 23:56:27 10° SSE
Okean 1 Rocket 3.5 23:47:22 10° NNW 23:51:30 39° W 23:55:35 10° SSW
ISS -2.7 23:50:07 13° SSW 23:52:55 41° SE 23:56:08 10° ENE
In-Cosmos 22 4.2 23:48:03 10° SSW 23:53:47 70° W 23:59:32 10° N
